Location: Boursonne
(49.2024°N, 3.0468°E)
Time: 02:30:24
(UTC+00:00)

Gbstr 26 Del rocket - Pass Details

Date: 03 March 2021
Orbit: 492 x 1264 km, 51.8° (Epoch: 17 April)

Event Time Altitude Azimuth Distance (km) Brightness Sun altitude
Rises 18:06:37 0° 256° (WSW) 2,716 8.5 -6.1°
Reaches altitude 10° 18:08:40 10° 258° (WSW) 1,892 7.3 -6.4°
Maximum altitude 18:12:57 78° 345° (NNW) 676 3.3 -7.1°
Drops below altitude 10° 18:18:14 10° 72° (ENE) 2,316 5.4 -8.0°
Enters shadow 18:18:33 - 73° (ENE) 2,442 5.5 -8.0°
